Tracking 30970 objects as of 3-Jul-2025
HD Live streaming from Space Station
objects crossing your sky now

FLOCK 4Q 23

Track FLOCK 4Q 23 now!
10-day predictions
FLOCK 4Q 23 is classified as:


NORAD ID: 58307
Int'l Code: 2023-174BD
Perigee: 456.1 km
Apogee: 465.8 km
Inclination: 97.4 °
Period: 93.7 minutes
Semi major axis: 6831 km
RCS: Unknown
Launch date: November 11, 2023
Source: United States (US)
Launch site: AIR FORCE WESTERN TEST RANGE (AFWTR)
Your satellite tracking list
SAC-D (AQUARIUS)
Track 1 satellite(s)




NASA's NSSDC Master Catalog

Two Line Element Set (TLE):
1 58307U 23174BD  25183.78737093  .00011105  00000-0  30485-3 0  9994
2 58307  97.4212 264.3131 0007133 327.4488  32.6316 15.37396795 91859
Source of the keplerian elements: AFSPC